{"data":{"norad_id":58874,"intl_designator":"2024-019X","name":"STARLINK-30945","alt_names":[],"object_type":"PAYLOAD","status":"ACTIVE","operator":null,"country":"US","launch_date":"2024-01-29","launch_site_code":"AFETR","launch_vehicle":null,"mission":null,"orbit_class":"UNKNOWN","rcs_meters":null,"size_class":null,"mass_kg":null,"dimensions":null,"purposes":["comms"],"wikipedia_slug":null,"has_3d_model":false,"image_url":null,"decayed_at":null,"tle_current":{"epoch":"2026-05-25T03:32:15.352224Z","epoch_age_seconds":61770,"freshness":"FRESH","line1":"1 58874U 24019X   26145.14739991  .00000860  00000+0  40768-4 0  9991","line2":"2 58874  43.0028 177.2912 0001582 275.8044  84.2627 15.27576582130771","mean_motion":15.27576582,"eccentricity":0.0001582,"inclination_deg":43.0028,"raan_deg":177.2912,"arg_perigee_deg":275.8044,"mean_anomaly_deg":84.2627,"bstar":4.0768e-5,"rev_number":13077,"period_min":94.266959638427,"perigee_km":481.97388952083,"apogee_km":484.14477203988,"semimajor_km":6861.1963307804,"source":"CELESTRAK","updated_at":"2026-05-25T13:38:18.780898Z"}}}